Lake Claiborne Weather Center

Moon Phase Calendar



Lake Claiborne Water Level
Online Cameras

 


      

Current Conditions in Homer
6/17/2021 10:10:34 PM

74°F
Feels Like 75
Clear
Humidity
70%
Pressure
30"
Wind
4.9 mph (SE)
Dew Point
64°F
UV Index
0/10 (Low)
Visibility
6 mi

Hourly Forecast

Date & Time Thu, Jun 17
10:00 PM
Thu, Jun 17
11:00 PM
Fri, Jun 18
12:00 AM
Fri, Jun 18
1:00 AM
Fri, Jun 18
2:00 AM
Fri, Jun 18
3:00 AM
Fri, Jun 18
4:00 AM
Fri, Jun 18
5:00 AM
Fri, Jun 18
6:00 AM
Fri, Jun 18
7:00 AM
Fri, Jun 18
8:00 AM
Fri, Jun 18
9:00 AM
Fri, Jun 18
10:00 AM
Fri, Jun 18
11:00 AM
Fri, Jun 18
12:00 PM
Fri, Jun 18
1:00 PM
Fri, Jun 18
2:00 PM
Fri, Jun 18
3:00 PM
Fri, Jun 18
4:00 PM
Fri, Jun 18
5:00 PM
Fri, Jun 18
6:00 PM
Fri, Jun 18
7:00 PM
Fri, Jun 18
8:00 PM
Fri, Jun 18
9:00 PM
Fri, Jun 18
10:00 PM
Fri, Jun 18
11:00 PM
Sat, Jun 19
12:00 AM
Sat, Jun 19
1:00 AM
Sat, Jun 19
2:00 AM
Sat, Jun 19
3:00 AM
Sat, Jun 19
4:00 AM
Sat, Jun 19
5:00 AM
Sat, Jun 19
6:00 AM
Sat, Jun 19
7:00 AM
Sat, Jun 19
8:00 AM
Sat, Jun 19
9:00 AM
Sat, Jun 19
10:00 AM
Sat, Jun 19
11:00 AM
Sat, Jun 19
12:00 PM
Sat, Jun 19
1:00 PM
Sat, Jun 19
2:00 PM
Sat, Jun 19
3:00 PM
Sat, Jun 19
4:00 PM
Sat, Jun 19
5:00 PM
Sat, Jun 19
6:00 PM
Sat, Jun 19
7:00 PM
Sat, Jun 19
8:00 PM
Sat, Jun 19
9:00 PM
Condition
Clear

Clear

Clear

Clear

Clouds

Clouds

Clouds

Clouds

Clouds

Clouds

Clouds

Clouds

Clouds

Clouds

Clouds

Clouds

Clouds

Clouds

Clouds

Clouds

Clouds

Clouds

Clouds

Clouds

Clouds

Clouds

Clouds

Clouds

Clear

Clear

Clear

Clear

Clear

Clear

Clear

Clear

Clear

Clear

Clouds

Clouds

Clouds

Clouds

Rain

Rain

Rain

Rain

Rain

Clouds
Temperature 74°F74°F74°F73°F71°F69°F67°F66°F66°F67°F73°F78°F83°F86°F88°F90°F92°F92°F91°F89°F87°F83°F78°F76°F74°F73°F73°F72°F71°F70°F69°F68°F68°F69°F74°F77°F81°F83°F86°F87°F89°F90°F87°F80°F79°F81°F76°F74°F
Feels Like 75°F75°F74°F73°F71°F69°F67°F67°F66°F68°F73°F79°F84°F86°F88°F89°F90°F91°F91°F91°F90°F87°F79°F77°F75°F74°F74°F73°F72°F71°F70°F69°F69°F70°F75°F78°F83°F87°F90°F91°F93°F93°F91°F85°F79°F85°F78°F75°F
Cloudiness 1%1%2%9%69%88%89%68%56%50%56%37%26%20%17%21%14%44%37%37%46%55%86%69%51%44%45%38%1%2%2%2%3%5%8%5%9%10%17%24%96%98%98%98%96%95%85%56%
Visibility 6 mi6 mi6 mi6 mi6 mi6 mi6 mi6 mi6 mi6 mi6 mi6 mi6 mi6 mi6 mi6 mi6 mi6 mi6 mi6 mi6 mi6 mi6 mi6 mi6 mi6 mi6 mi6 mi6 mi6 mi6 mi6 mi6 mi6 mi6 mi6 mi6 mi6 mi6 mi6 mi6 mi6 mi6 mi6 mi6 mi6 mi6 mi6 mi
Precipitation 4%4%4%0%0%0%0%0%0%0%0%0%0%0%0%0%0%0%0%0%1%1%0%0%0%0%0%0%0%0%0%0%0%0%0%0%0%0%0%0%18%26%34%34%30%30%53%37%
Humidity 70%69%69%69%73%76%78%80%81%82%71%61%51%43%38%34%32%33%36%42%53%66%78%82%86%89%91%95%97%98%98%98%98%96%85%75%66%61%58%53%48%48%58%77%82%80%89%92%
Dew Point 64°F64°F63°F62°F62°F60°F60°F60°F60°F61°F63°F63°F63°F61°F60°F58°F57°F58°F61°F63°F68°F70°F71°F70°F69°F70°F70°F70°F70°F69°F68°F67°F67°F68°F68°F68°F68°F68°F69°F68°F67°F67°F69°F72°F73°F74°F73°F71°F
Pressure 30"30"30"29.97"29.97"29.97"29.97"29.97"29.97"29.97"29.97"29.97"29.97"29.97"29.94"29.94"29.91"29.91"29.88"29.88"29.88"29.88"29.88"29.91"29.91"29.91"29.91"29.88"29.88"29.85"29.85"29.85"29.85"29.88"29.88"29.88"29.88"29.85"29.85"29.83"29.8"29.8"29.8"29.8"29.8"29.8"29.8"29.83"
Wind Speed 4.9 mph4.9 mph5.3 mph4.9 mph3.8 mph1.7 mph2.1 mph2.8 mph2.6 mph3.4 mph3.4 mph3.8 mph4 mph4.8 mph5.6 mph5.9 mph6.5 mph7.7 mph8.8 mph8.8 mph7.6 mph6.1 mph5.2 mph5.9 mph5.1 mph5.8 mph6.4 mph5.4 mph4.6 mph3.8 mph3.7 mph3.8 mph3.8 mph4 mph6.2 mph6.9 mph7.4 mph7.8 mph8.4 mph8.9 mph8.1 mph8.1 mph7.9 mph6.7 mph6 mph5 mph3.4 mph2.2 mph
Wind
Direction
134°
SE
135°
SE
135°
SE
134°
SE
131°
SE
101°
E
80°
E
93°
E
92°
E
105°
ESE
115°
ESE
114°
ESE
112°
ESE
118°
ESE
120°
ESE
115°
ESE
108°
ESE
108°
ESE
107°
ESE
108°
ESE
107°
ESE
104°
ESE
107°
ESE
126°
SE
122°
ESE
119°
ESE
120°
ESE
115°
ESE
113°
ESE
102°
ESE
92°
E
83°
E
36°
NE
32°
NNE
52°
NE
39°
NE
31°
NNE
32°
NNE
39°
NE
46°
NE
50°
NE
48°
NE
75°
ENE
90°
E
86°
E
79°
E
84°
E
107°
ESE

Daily Forecast

Date High Low Precip. Humidity
Today
Jun 17

Clouds
91 °F
72 °F
4%
40%
Friday
Jun 18

Clouds
92 °F
66 °F
4%
34%
Saturday
Jun 19

Rain
87 °F
68 °F
34%
53%
Sunday
Jun 20

Clear
97 °F
71 °F
12%
43%
Monday
Jun 21

Rain
84 °F
74 °F
100%
74%
Tuesday
Jun 22

Rain
84 °F
65 °F
100%
54%
Wednesday
Jun 23

Clear
89 °F
59 °F
0%
49%
Thursday
Jun 24

Clouds
96 °F
70 °F
0%
51%
Friday
Jun 25

Clouds
97 °F
77 °F
0%
44%
Saturday
Jun 26

Clouds
96 °F
75 °F
14%
41%
Sunday
Jun 27

Clear
98 °F
75 °F
0%
46%
Monday
Jun 28

Clear
98 °F
77 °F
0%
46%
Tuesday
Jun 29

Clear
98 °F
76 °F
0%
44%
Wednesday
Jun 30

Clouds
98 °F
76 °F
12%
43%
Thursday
Jul 1

Clear
96 °F
76 °F
23%
41%
Friday
Jul 2

Clear
97 °F
75 °F
12%
40%

Temperature 8-14 Day Outlook



Precipitation 8-14 Day Outlook




Quick Links
Lake Claiborne News
Lake Claiborne Photos
Lake Claiborne Videos




About Us
Contact Us
Site Map
Search Site
Advertise With Us
   
Claiborne-LA.LakesOnline.com
THE LAKE CLAIBORNE WEBSITE

Copyright 2021, Lakes Online
Privacy    |    Legal